www.pogodaiklimat.ru

Погода и климат >> Архив погоды >> Шри Ланка >> Вавуния


ПОГОДА в Вавунии

  • Прогноз погоды в Вавунии
  • Монитор погоды в Вавунии

АРХИВ ПОГОДЫ в Вавунии

Время (UTC), дата Ветер
(напр.,м/с)
 
Видим.   Явления Облачность Т
(С)
Тd
(С)
f
(%)
Тe
(С)
Тes
(С)
Комфортность P
(гПа)
Po
(гПа)
Тmin
(С)
Tmax
(С)
R
(мм)
R24
(мм)
S
(см)
03 16.08 ЮЗ 2 20 км 5/5 540 м
[Cu hum]
+30.0 +24.3 72 +42 +46 опасность
перегрева
1009.5 998.7 +26.0
06 16.08 ЮЗ 1 20 км 8/5 540 м
[Cu hum Ac As Ci fib]
+32.4 +23.5 59 +43 +52 опасность
перегрева
1009.3 998.5
09 16.08 штиль 0 20 км гроза, ливневой дождь 10/5 540 м
[Cb cap Ac As]
+25.6 +23.9 90 +35 +38 очень
душно
1008.0 997.2 24
12 16.08 штиль 0 20 км {ливн. осадки} 10/5 540 м
[Cu hum Ac As]
+26.0 +24.6 92 +37 +37 очень
душно
1007.0 996.2 +34.8 1
03 17.08 штиль 0 20 км слаб. морось 9/5 540 м
[Cu hum Ac As]
+24.4 +23.8 96 +33 +35 очень
душно
1010.2 999.4 +24.4 6
06 17.08 штиль 0 20 км {ливн. осадки, морось} 10/5 540 м
[Cu hum Ac As Ci fib]
+28.4 +22.5 70 +37 +45 очень
душно
1008.9 998.1 1
09 17.08 штиль 0 20 км 10/5 540 м
[Cu hum Ac As Ci fib]
+30.0 +24.3 72 +42 +47 опасность
перегрева
1008.7 997.9
00 18.08 штиль 0 20 км 10/1 540 м
[Cu hum Cs]
+25.0 +23.5 91 +34 +34 очень
душно
1008.6 997.8
03 18.08 ЮЗ 1 20 км 9/8 540 м
[Cu hum Ac trans]
+27.0 +24.1 84 +37 +39 очень
душно
1009.6 998.8 +23.9
09 18.08 штиль 0 20 км {морось} 6/6 540 м
[Cu hum]
+31.0 +24.7 69 +44 +52 опасность
перегрева
1008.1 997.3 0.0
15 18.08 штиль 0 20 км 6/1 540 м
[Cu hum Ci fib]
+25.2 +24.7 97 +35 +35 очень
душно
1010.6 999.8
00 19.08 штиль 0 20 км 8/4 540 м
[Cu hum Ci fib]
+24.9 +24.1 95 +34 +34 очень
душно
1010.0 999.2
03 19.08 ЮЗ 1 20 км 8/8 540 м
[Cu hum]
+26.8 +24.8 89 +38 +40 очень
душно
1010.6 999.8 +23.6
06 19.08 ЮЗ 2 20 км 6/6 540 м
[Cu hum]
+32.4 +24.1 62 +45 +53 опасность
перегрева
1010.3 999.5
09 19.08 ЮЗ 4 20 км 4/4 540 м
[Cu hum]
+34.4 +22.8 51 +44 +50 опасность
перегрева
1008.4 997.6
15 19.08 ЮЗ 2 20 км 1/1 540 м
[Cu hum Ci fib]
+27.4 +22.7 76 +36 +36 очень
душно
1010.4 999.6
00 20.08 ЮЗ 1 20 км 8/8 540 м
[Cu hum]
+25.4 +24.5 95 +36 +36 очень
душно
1009.7 998.9
03 20.08 ЮЗ 1 20 км 6/6 540 м
[Cu hum]
+28.0 +24.9 83 +40 +44 очень
душно
1010.4 999.6 +25.3
06 20.08 ЮЗ 2 20 км 6/6 540 м
[Cu hum]
+32.0 +24.0 63 +44 +53 опасность
перегрева
1010.5 999.7
09 20.08 ЮЗ 3 20 км 9/0 300 м
[Ac cast]
+33.0 +22.9 55 +43 +47 опасность
перегрева
1008.7 997.9
12 20.08 ЮЗ 2 20 км 10/1 540 м
[Cu hum Ci fib]
+31.5 +22.8 60 +41 +42 опасность
перегрева
1007.4 996.6 +34.7
15 20.08 ЮЗ 1 20 км 1/1 540 м
[Cu hum]
+27.9 +23.3 76 +38 +38 очень
душно
1009.8 999.0
00 21.08 ЮЗ 2 20 км 9/1 540 м
[Cu hum Cs]
+25.5 +24.1 92 +35 +35 очень
душно
1008.8 998.0
03 21.08 ЮЗ 1 20 км 9/9 540 м
[Cu hum]
+27.8 +24.3 81 +39 +40 очень
душно
1009.8 999.0 +25.3
06 21.08 СЗ 1 20 км 6/6 540 м
[Cu hum]
+32.2 +23.2 59 +43 +53 опасность
перегрева
1009.3 998.5
09 21.08 ЮЗ 4 20 км 8/8 540 м
[Cu hum]
+33.0 +22.9 55 +43 +45 опасность
перегрева
1008.2 997.4
15 21.08 ЮЗ 1 20 км 5/5 540 м
[Cu hum]
+27.5 +23.9 81 +38 +38 очень
душно
1010.0 999.2
00 22.08 штиль 0 20 км 1/1 540 м
[Cu hum]
+25.2 +24.0 93 +35 +35 очень
душно
1009.0 998.2
03 22.08 ЮЗ 1 20 км 9/9 540 м
[Cu hum]
+27.7 +24.5 83 +39 +40 очень
душно
1010.3 999.5 +25.1
06 22.08 ЮЗ 4 20 км 10/10 540 м
[Cu med, cong]
+30.8 +23.9 67 +42 +42 опасность
перегрева
1010.4 999.6
09 22.08 ЮЗ 4 20 км 10/5 540 м
[Cu hum Ci fib]
+32.0 +23.3 60 +43 +47 опасность
перегрева
1008.3 997.5
15 22.08 З 3 20 км 3/3 540 м
[Cu hum]
+26.8 +23.0 80 +36 +36 очень
душно
1009.4 998.6

 

Местоположение метеостанции Вавуния (Шри Ланка): широта 8.75 долгота 80.50 высота над уровнем моря 98 м.

В архиве по умолчанию представлена погода в Вавунии за последнюю неделю. Архивные данные за месяц целиком и за предыдущие месяцы, начиная с января 2011 года, Вы можете получить, выбрав интересующий диапазон дат из раскрывающегося списка и нажав кнопку "Ввод!".


*Определитесь, кто Вы:
робот инопланетянин человек

Внимание! Время в таблицах - всемирное. Для получения местного времени необходимо прибавить поправку, которая равна 6 ч.

Смотрите также архив погоды в соседних городах и на ближайших метеорологических станциях:

Погода в Анурадхапуре (Шри Ланка) (48 км)
Погода в Маннаре (Шри Ланка) (69 км)
Погода в Маха Иллуппаллама (Шри Ланка) (70 км)
Погода в Тринкомали (Шри Ланка) (85 км)
Погода в Путталаме (Шри Ланка) (109 км)
Погода в Джафне (Шри Ланка) (113 км)
Погода в Курунегала (Шри Ланка) (143 км)
Погода на Памбане (Тамилнад, Индия) (152 км)
Погода в Канди (Шри Ланка) (159 км)
Погода в Баттикалоа (Шри Ланка) (175 км)

Пояснения к столбцам:

Ветер - указаны скорость ветра в м/с - средняя за 10 мин, порывы в срок и между сроками (в фигурных скобках) и направление, откуда дует ветер: С - северный, СВ - северо-восточный, В - восточный, ЮВ - юго-восточный, Ю - южный, ЮЗ - юго-западный, З - западный, СЗ - северо-западный.
Видимость - горизонтальная дальность видимости в метрах или километрах. При видимости от 1 до 10 км при отсутствии осадков обычно наблюдается дымка, при ухудшении видимости до 1 км и менее - туман. В сухую погоду видимость может ухудшаться дымом, пылью или мглою.
Явления - указаны атмосферные явления, наблюдавшиеся в срок или в последний час перед сроком; фигурными скобками обозначены явления, наблюдавшиеся между сроками (за 1-3 часа до срока); квадратными скобками обозначены град или гололедные отложения с указанием их диаметра в мм.
Облачность - указаны через наклонную черту общая и нижняя облачность в баллах и высота нижней границы облаков в метрах; квадратными скобками обозначены формы облаков: Ci - перистые, Cs - перисто-слоистые, Cc - перисто-кучевые, Ac - высококучевые, As - высокослоистые, Sc - слоисто-кучевые, Ns - слоисто-дождевые, Cu - кучевые, Cb - кучево-дождевые. Подробнее классификацию облаков см. в Атласе облаков (PDF).
T - Температура воздуха - температура, измеренная на высоте 2 м над землей.
Td - Температура точки росы - температура, при понижении до которой содержащийся в воздухе водяной пар достигнет насыщения.
f - Относительная влажность воздуха - влажноcть воздуха, измеренная на высоте 2 м над землей.
Te - Эффективная температура - температура, которую ощущает одетый по сезону человек в тени. Характеристика душности погоды. При расчете учитывается влияние влажности воздуха и скорости ветра на теплоощущения человека.
Tes - Эффективная температура на солнце - температура, которую ощущает человек, с поправкой на солнечный нагрев. Характеристика знойности погоды. Зависит от высоты солнца над горизонтом, облачности и скорости ветра. Ночью, в пасмурную погоду, а также при ветре 12 м/с и более поправка равна нулю.
P - Атмосферное давление - приведенное к уровню моря атмосферное давление.
Po - Атмосферное давление - измеренное на уровне метеостанции атмосферное давление.
Tmin - Минимальная температура - минимум температуры воздуха на высоте 2 м над землей.
Tmax - Максимальная температура - максимум температуры воздуха на высоте 2 м над землей.
R - Количество осадков - Количество выпавших осадков за период времени, мм. При наведении курсора мыши на число - период времени, за который выпало указанное количество осадков.
R24 - Количество осадков - Количество выпавших осадков за 24 часа, мм.
S - Снежный покров - Высота снежного покрова, см. При наведении курсора мыши на число - состояние снежного покрова и степень покрытия местности в баллах.